FLOCK 4Q 3

导读

FLOCK 4Q 3是美国Planet公司FLOCK鸽群星座下的一颗SuperDove商业遥感微纳卫星,于2023年11月11日发射升空。作为新一代3U立方星,它重约5kg,搭载高性能光学成像设备,可提供3米分辨率多光谱遥感影像。 该卫星补充了Planet在轨遥感星座,助力实现全球陆地每日成像覆盖,服务农业估产、自然资源监测、城市规划、灾害评估等多个领域,为行业决策提供及时可靠的对地观测数据支撑。

Basic Information
目录编号:
58312
目录名称:
FLOCK 4Q 3
国际标识:
2023-174BJ
轨道中心:
EARTH
卫星名称:
FLOCK 4Q 3
卫星全名:
--
卫星状态:
已陨落 最后检测时间 2025-03-25
发射日期:
2023-11-11 UTC
国别 :
美国 (US)
星等 :
--
Orbit Information
数据来源 国际轨道数据
星历时间: 2025-03-18T12:14:48+0800
轨道信息已过期450天
半长轴: 6563.112km
偏心率: 0.0013505
轨道倾角: 97.373°
近地点辐角 274.115°
升交点赤经 164.976°
平近点角 85.860°
近地点: 176.113km
远地点: 193.841km
周期: 88.191分钟
每日圈数: 16.328192
Detailed Information
使用方式:
暂无